Location: Andrest
(43.3200°N, 0.0641°E)
Time: 14:33:59
(UTC+00:00)

USA 281 - Pass Details

Date: 01 December 2020
Orbit: 1074 x 1084 km, 106.0° (Epoch: 08 January)

Event Time Altitude Azimuth Distance (km) Brightness Sun altitude
Rises 17:20:10 0° 114° (ESE) 3,875 5.7 -9.9°
Reaches altitude 10° 17:23:05 10° 103° (ESE) 2,920 5.0 -10.4°
Maximum altitude 17:28:19 26° 49° (NE) 1,968 4.1 -11.3°
Drops below altitude 10° 17:33:34 10° 356° (N) 2,926 5.3 -12.2°
Sets 17:36:29 0° 345° (NNW) 3,884 6.1 -12.7°
